(°C)
24°
24°
24°
24°
24°
22°
20°
(°C)
23°
23°
23°
23°
22°
21°
20°
З
З
ЗСЗ
ЗСЗ
СЗ
ССЗ
С
(км/ч)
9-17
9-19
9-19
10-18
9-16
8-14
8-12
(мм)
0
0
0
0
0
0
0
(%)
0
0
0
0
1
1
7

Высота солнцестояния

/ 47.3°
sun-icon
UV 6
04:12
21:00
Прибывающая луна (58°)
08:43
00:14

METAR для 52.17°С 20.97°В (EPWA)

Время Условия Температура/
Точка росы
Ветер Видимость Погода Облачность Давление Изменить Необработанный
VFR 24°C / 10°C 270º variable 190º to 330º 3kt >10km - Clouds and Visibility OK 1018 No Significant change EPWA 151300Z 27003KT 190V330 CAVOK 24/10 Q1018 NOSIG
VFR 23°C / 11°C 290º variable 260º to 340º 6kt >10km - Clouds and Visibility OK 1018 No Significant change EPWA 151230Z 29006KT 260V340 CAVOK 23/11 Q1018 NOSIG
VFR 24°C / 12°C 290º variable 240º to 340º 5kt >10km - Clouds and Visibility OK 1018 No Significant change EPWA 151200Z 29005KT 240V340 CAVOK 24/12 Q1018 NOSIG
VFR 24°C / 10°C variable 3kt >10km - Clouds and Visibility OK 1018 No Significant change EPWA 151130Z VRB03KT CAVOK 24/10 Q1018 NOSIG
VFR 23°C / 11°C 250º variable 210º to 300º 7kt >10km - Clouds and Visibility OK 1018 No Significant change EPWA 151100Z 25007KT 210V300 CAVOK 23/11 Q1018 NOSIG
VFR 23°C / 10°C 310º variable 230º to 040º 4kt >10km - Clouds and Visibility OK 1019 No Significant change EPWA 151030Z 31004KT 230V040 CAVOK 23/10 Q1019 NOSIG
VFR 22°C / 10°C 240º variable 200º to 270º 5kt >10km - Clouds and Visibility OK 1019 No Significant change EPWA 151000Z 24005KT 200V270 CAVOK 22/10 Q1019 NOSIG
VFR 22°C / 10°C 300º variable 220º to 340º 5kt >10km - Few Clouds 4300ft 1019 No Significant change EPWA 150930Z 30005KT 220V340 9999 FEW043 22/10 Q1019 NOSIG
VFR 21°C / 10°C 260º variable 210º to 300º 5kt >10km - Few Clouds 4300ft 1019 No Significant change EPWA 150900Z 26005KT 210V300 9999 FEW043 21/10 Q1019 NOSIG
VFR 21°C / 10°C 270º variable 230º to 300º 6kt >10km - Few Clouds 4000ft 1019 No Significant change EPWA 150830Z 27006KT 230V300 9999 FEW040 21/10 Q1019 NOSIG
VFR 21°C / 10°C 260º variable 210º to 290º 6kt >10km - Clouds and Visibility OK 1019 No Significant change EPWA 150800Z 26006KT 210V290 CAVOK 21/10 Q1019 NOSIG
VFR 21°C / 11°C 250º variable 200º to 300º 5kt >10km - Clouds and Visibility OK 1019 No Significant change EPWA 150730Z 25005KT 200V300 CAVOK 21/11 Q1019 NOSIG
VFR 20°C / 11°C 270º variable 230º to 320º 4kt >10km - Clouds and Visibility OK 1019 No Significant change EPWA 150700Z 27004KT 230V320 CAVOK 20/11 Q1019 NOSIG
VFR 20°C / 11°C 280º variable 230º to 330º 4kt >10km - Clouds and Visibility OK 1019 No Significant change EPWA 150630Z 28004KT 230V330 CAVOK 20/11 Q1019 NOSIG
VFR 19°C / 11°C 260º 5kt >10km - Clouds and Visibility OK 1019 No Significant change EPWA 150600Z 26005KT CAVOK 19/11 Q1019 NOSIG
VFR 17°C / 10°C 260º 4kt >10km - Clouds and Visibility OK 1019 No Significant change EPWA 150530Z 26004KT CAVOK 17/10 Q1019 NOSIG
VFR 16°C / 10°C 270º variable 240º to 300º 3kt >10km - Clouds and Visibility OK 1019 No Significant change EPWA 150500Z 27003KT 240V300 CAVOK 16/10 Q1019 NOSIG
VFR 14°C / 11°C 280º 3kt >10km - Clouds and Visibility OK 1019 No Significant change EPWA 150430Z 28003KT CAVOK 14/11 Q1019 NOSIG
VFR 13°C / 10°C 260º 1kt >10km - Clouds and Visibility OK 1019 No Significant change EPWA 150400Z 26001KT CAVOK 13/10 Q1019 NOSIG
VFR 11°C / 9°C variable 0kt >10km - Clouds and Visibility OK 1019 No Significant change EPWA 150330Z 00000KT CAVOK 11/09 Q1019 NOSIG
VFR 10°C / 9°C variable 0kt >10km shallow Fog Vertical Visibility of 0ft. 1019 No Significant change EPWA 150300Z 00000KT 9999 MIFG NSC 10/09 Q1019 NOSIG
VFR 10°C / 9°C variable 0kt >10km shallow Fog Vertical Visibility of 0ft. 1019 No Significant change EPWA 150230Z 00000KT 9999 MIFG NSC 10/09 Q1019 NOSIG
VFR 10°C / 9°C variable 0kt >10km shallow Fog Vertical Visibility of 0ft. 1018 No Significant change EPWA 150200Z 00000KT 9999 MIFG NSC 10/09 Q1018 NOSIG
VFR 11°C / 10°C variable 0kt >10km shallow Fog Vertical Visibility of 0ft. 1018 No Significant change EPWA 150130Z 00000KT 9999 MIFG NSC 11/10 Q1018 NOSIG

VFR

24°C / 10°C

[Больше]
Ветер 270º variable 190º to 330º 3kt
Видимость >10km
Погода -
Облачность Clouds and Visibility OK
Давление 1018
Изменить No Significant change
Необработанный EPWA 151300Z 27003KT 190V330 CAVOK 24/10 Q1018 NOSIG

VFR

23°C / 11°C

[Больше]
Ветер 290º variable 260º to 340º 6kt
Видимость >10km
Погода -
Облачность Clouds and Visibility OK
Давление 1018
Изменить No Significant change
Необработанный EPWA 151230Z 29006KT 260V340 CAVOK 23/11 Q1018 NOSIG

VFR

24°C / 12°C

[Больше]
Ветер 290º variable 240º to 340º 5kt
Видимость >10km
Погода -
Облачность Clouds and Visibility OK
Давление 1018
Изменить No Significant change
Необработанный EPWA 151200Z 29005KT 240V340 CAVOK 24/12 Q1018 NOSIG

VFR

24°C / 10°C

[Больше]
Ветер variable 3kt
Видимость >10km
Погода -
Облачность Clouds and Visibility OK
Давление 1018
Изменить No Significant change
Необработанный EPWA 151130Z VRB03KT CAVOK 24/10 Q1018 NOSIG

VFR

23°C / 11°C

[Больше]
Ветер 250º variable 210º to 300º 7kt
Видимость >10km
Погода -
Облачность Clouds and Visibility OK
Давление 1018
Изменить No Significant change
Необработанный EPWA 151100Z 25007KT 210V300 CAVOK 23/11 Q1018 NOSIG

VFR

23°C / 10°C

[Больше]
Ветер 310º variable 230º to 040º 4kt
Видимость >10km
Погода -
Облачность Clouds and Visibility OK
Давление 1019
Изменить No Significant change
Необработанный EPWA 151030Z 31004KT 230V040 CAVOK 23/10 Q1019 NOSIG

VFR

22°C / 10°C

[Больше]
Ветер 240º variable 200º to 270º 5kt
Видимость >10km
Погода -
Облачность Clouds and Visibility OK
Давление 1019
Изменить No Significant change
Необработанный EPWA 151000Z 24005KT 200V270 CAVOK 22/10 Q1019 NOSIG

VFR

22°C / 10°C

[Больше]
Ветер 300º variable 220º to 340º 5kt
Видимость >10km
Погода -
Облачность Few Clouds 4300ft
Давление 1019
Изменить No Significant change
Необработанный EPWA 150930Z 30005KT 220V340 9999 FEW043 22/10 Q1019 NOSIG

VFR

21°C / 10°C

[Больше]
Ветер 260º variable 210º to 300º 5kt
Видимость >10km
Погода -
Облачность Few Clouds 4300ft
Давление 1019
Изменить No Significant change
Необработанный EPWA 150900Z 26005KT 210V300 9999 FEW043 21/10 Q1019 NOSIG

VFR

21°C / 10°C

[Больше]
Ветер 270º variable 230º to 300º 6kt
Видимость >10km
Погода -
Облачность Few Clouds 4000ft
Давление 1019
Изменить No Significant change
Необработанный EPWA 150830Z 27006KT 230V300 9999 FEW040 21/10 Q1019 NOSIG

VFR

21°C / 10°C

[Больше]
Ветер 260º variable 210º to 290º 6kt
Видимость >10km
Погода -
Облачность Clouds and Visibility OK
Давление 1019
Изменить No Significant change
Необработанный EPWA 150800Z 26006KT 210V290 CAVOK 21/10 Q1019 NOSIG

VFR

21°C / 11°C

[Больше]
Ветер 250º variable 200º to 300º 5kt
Видимость >10km
Погода -
Облачность Clouds and Visibility OK
Давление 1019
Изменить No Significant change
Необработанный EPWA 150730Z 25005KT 200V300 CAVOK 21/11 Q1019 NOSIG

VFR

20°C / 11°C

[Больше]
Ветер 270º variable 230º to 320º 4kt
Видимость >10km
Погода -
Облачность Clouds and Visibility OK
Давление 1019
Изменить No Significant change
Необработанный EPWA 150700Z 27004KT 230V320 CAVOK 20/11 Q1019 NOSIG

VFR

20°C / 11°C

[Больше]
Ветер 280º variable 230º to 330º 4kt
Видимость >10km
Погода -
Облачность Clouds and Visibility OK
Давление 1019
Изменить No Significant change
Необработанный EPWA 150630Z 28004KT 230V330 CAVOK 20/11 Q1019 NOSIG

VFR

19°C / 11°C

[Больше]
Ветер 260º 5kt
Видимость >10km
Погода -
Облачность Clouds and Visibility OK
Давление 1019
Изменить No Significant change
Необработанный EPWA 150600Z 26005KT CAVOK 19/11 Q1019 NOSIG

VFR

17°C / 10°C

[Больше]
Ветер 260º 4kt
Видимость >10km
Погода -
Облачность Clouds and Visibility OK
Давление 1019
Изменить No Significant change
Необработанный EPWA 150530Z 26004KT CAVOK 17/10 Q1019 NOSIG

VFR

16°C / 10°C

[Больше]
Ветер 270º variable 240º to 300º 3kt
Видимость >10km
Погода -
Облачность Clouds and Visibility OK
Давление 1019
Изменить No Significant change
Необработанный EPWA 150500Z 27003KT 240V300 CAVOK 16/10 Q1019 NOSIG

VFR

14°C / 11°C

[Больше]
Ветер 280º 3kt
Видимость >10km
Погода -
Облачность Clouds and Visibility OK
Давление 1019
Изменить No Significant change
Необработанный EPWA 150430Z 28003KT CAVOK 14/11 Q1019 NOSIG

VFR

13°C / 10°C

[Больше]
Ветер 260º 1kt
Видимость >10km
Погода -
Облачность Clouds and Visibility OK
Давление 1019
Изменить No Significant change
Необработанный EPWA 150400Z 26001KT CAVOK 13/10 Q1019 NOSIG

VFR

11°C / 9°C

[Больше]
Ветер variable 0kt
Видимость >10km
Погода -
Облачность Clouds and Visibility OK
Давление 1019
Изменить No Significant change
Необработанный EPWA 150330Z 00000KT CAVOK 11/09 Q1019 NOSIG

VFR

10°C / 9°C

[Больше]
Ветер variable 0kt
Видимость >10km
Погода shallow Fog
Облачность Vertical Visibility of 0ft.
Давление 1019
Изменить No Significant change
Необработанный EPWA 150300Z 00000KT 9999 MIFG NSC 10/09 Q1019 NOSIG

VFR

10°C / 9°C

[Больше]
Ветер variable 0kt
Видимость >10km
Погода shallow Fog
Облачность Vertical Visibility of 0ft.
Давление 1019
Изменить No Significant change
Необработанный EPWA 150230Z 00000KT 9999 MIFG NSC 10/09 Q1019 NOSIG

VFR

10°C / 9°C

[Больше]
Ветер variable 0kt
Видимость >10km
Погода shallow Fog
Облачность Vertical Visibility of 0ft.
Давление 1018
Изменить No Significant change
Необработанный EPWA 150200Z 00000KT 9999 MIFG NSC 10/09 Q1018 NOSIG

VFR

11°C / 10°C

[Больше]
Ветер variable 0kt
Видимость >10km
Погода shallow Fog
Облачность Vertical Visibility of 0ft.
Давление 1018
Изменить No Significant change
Необработанный EPWA 150130Z 00000KT 9999 MIFG NSC 11/10 Q1018 NOSIG

TAF для 52.17°С 20.97°В (EPWA)

From till


From till Wind 230º 7kt. Visibility 10km or more. Nil Significant Cloud.
Becoming from till Wind 20º 11kt. Visibility 10km or more. Nil Significant Cloud.

Необработанный: TAF EPWA 151130Z 1512/1612 23007KT CAVOK BECMG 1519/1522 02011KT

Текущие спутниковые изображения и снимки дождя для 52.17°С 20.97°В

Указатель местности находится на 52.17°С 20.97°В. [Больше]

Спутниковое изображение в реальном времени сочетает в себе видимый свет в дневное время с инфракрасным излучением в ночное время. Ночью изображение получается не темным, так как инфракрасное излучение может обнаружить разницу температур. К сожалению, низкие облака и туман трудно отличить от температуры у поверхности земли и поэтому могут быть почти незаметны ночью. Спутниковые снимки Meteosat для Европы обновляются каждые 5 минут в режиме реального времени.Снимки GOES-16/GOES-17 (Северная и Южная Америка) и Химавари (Азия) обновляются каждые 10 минут.

Вероятность осадков оценивается по данным радиолокаторов и спутников. Спутниковые данные о возможности осадков в ночное время менее точные, чем дневные данные. Оранжевыми крестами отмечаются места,где обнаруживается молния (болееЕвропа).

Копирайт 2021 EUMETSAT / meteoblue. Данные о молниях предоставляются со стороны nowcast.

Радарный и сверхкраткосрочный прогноз осадков для 52.17°С 20.97°В

Индикатор местности находится на 52.17°С 20.97°В. Анимация показывает радар осадков за последний час, а также прогноз погоды для1h. Умеренная морось или легкий снег могут быть незаметны для радара. Интенсивность осадковмаркированна цветной кодировкой, начиная со светло-синего и заканчивая темно-пурпурным.